Zurück zum Katalog

FENGYUN 1C DEB

AktivPO
NORAD 29780·DEBRIS·🇨🇳 China

Gestartet May 10, 1999 von Taiyuan Satellite Launch Center

Loading…

Nächste Überflüge (nächste 24 Stunden)

TLE

AktuellSource: Space-Track

Epoche: Sep 14, 2026, 19:26 UTC

1 29780U 99025BW  26257.80984101  .00002565  00000-0  11541-2 0  9996
2 29780  99.2811 198.0335 0042784  64.7700 295.7902 14.22787479  9998

Verfolge FENGYUN 1C DEB in Echtzeit mit AllMySat

Download on the App Store